Provo, UT

12:59 AM MST on December 16, 2019 (GMT -0700)
Provo Municipal

Weather History for KPVU - October, 2019

Change the Weather History Date:

Friday, October 4, 2019

  Actual Average Record
Temperature  
Mean Temperature 56 °F -  
Max Temperature 68 °F 69 °F 80 °F (1988)
Min Temperature 46 °F 41 °F 33 °F (1999)
Degree Days  
Heating Degree Days 9    
Growing Degree Days 6 (Base 50)    
Moisture  
Dew Point 30 °F    
Average Humidity 38    
Maximum Humidity 56    
Minimum Humidity 25    
Precipitation  
Precipitation 0.00 in - - ()
Sea Level Pressure  
Sea Level Pressure 29.96 in    
Wind  
Wind Speed 11 mph (North)    
Max Wind Speed 24 mph    
Max Gust Speed 30 mph    
Visibility 10 miles    
Events      
Averages and records for this station are not official NWS values.
T = Trace of Precipitation, MM = Missing Value Source: NWS Daily Summary

Daily Weather History Graph

Daily Weather History Graph

Search for Another Location

Airport or City:

Astronomy

Oct. 04, 2019 Rise Set
Actual Time 7:26 AM MDT 7:04 PM MDT
Civil Twilight 6:58 AM MDT 7:31 PM MDT
Nautical Twilight 6:27 AM MDT 8:02 PM MDT
Astronomical Twilight 5:55 AM MDT 8:34 PM MDT
Moon 2:01 PM MDT (10/4) 11:36 PM MDT (10/4)
Length of Visible Light 12h 32m
Length of Day
11h 38m
Waxing Crescent, 40% of the Moon is Illuminated
Oct 4
Waxing Crescent
Oct 5
First Quarter
Oct 13
Full
Oct 21
Last Quarter
Oct 27
New

Hourly Weather History & Observations

Time (MDT) Temp. Dew Point Humidity Pressure Visibility Wind Dir Wind Speed Gust Speed Precip Events Conditions
12:56 AM 57.0 °F 28.0 °F 33% 29.84 in 10.0 mi SE 10.4 mph - N/A   Clear
1:56 AM 48.9 °F 30.0 °F 48% 29.87 in 10.0 mi SE 3.5 mph - N/A   Clear
2:56 AM 48.0 °F 28.0 °F 46% 29.85 in 10.0 mi SE 5.8 mph - N/A   Clear
3:56 AM 46.9 °F 30.9 °F 54% 29.84 in 10.0 mi ESE 8.1 mph - N/A   Clear
4:56 AM 46.9 °F 27.0 °F 46% 29.84 in 10.0 mi Calm Calm - N/A   Clear
5:56 AM 48.0 °F 30.9 °F 52% 29.83 in 10.0 mi SE 8.1 mph - N/A   Clear
6:56 AM 51.1 °F 28.0 °F 41% 29.83 in 10.0 mi SE 6.9 mph - N/A   Clear
7:56 AM 51.1 °F 30.0 °F 44% 29.86 in 10.0 mi SE 11.5 mph - N/A   Clear
8:56 AM 55.9 °F 28.9 °F 36% 29.87 in 10.0 mi SE 6.9 mph - N/A   Partly Cloudy
9:56 AM 64.9 °F 28.0 °F 25% 29.85 in 10.0 mi SE 10.4 mph - N/A   Clear
10:56 AM 66.0 °F 36.0 °F 33% 29.85 in 10.0 mi SW 21.9 mph - N/A   Clear
11:56 AM 66.0 °F 35.1 °F 32% 29.86 in 10.0 mi WSW 11.5 mph - N/A   Clear
12:56 PM 66.9 °F 32.0 °F 27% 29.87 in 10.0 mi West 18.4 mph 26.5 mph N/A   Scattered Clouds
1:28 PM 66.2 °F 33.8 °F 30% 29.99 in 10.0 mi NNW 24.2 mph 29.9 mph N/A   Clear
1:56 PM 64.0 °F 33.1 °F 31% 29.93 in 10.0 mi NNW 24.2 mph - N/A   Scattered Clouds
2:56 PM 61.0 °F 28.9 °F 30% 29.97 in 10.0 mi NNW 23.0 mph 26.5 mph N/A   Scattered Clouds
3:56 PM 63.0 °F 28.0 °F 27% 30.00 in 10.0 mi NNW 18.4 mph 24.2 mph N/A   Scattered Clouds
4:56 PM 60.1 °F 26.1 °F 27% 30.04 in 10.0 mi NNW 23.0 mph 29.9 mph N/A   Scattered Clouds
5:56 PM 57.0 °F 27.0 °F 32% 30.08 in 10.0 mi North 21.9 mph 27.6 mph N/A   Mostly Cloudy
6:56 PM 55.0 °F 26.1 °F 33% 30.13 in 10.0 mi North 21.9 mph - N/A   Mostly Cloudy
7:56 PM 53.1 °F 26.1 °F 35% 30.15 in 10.0 mi NNW 20.7 mph 28.8 mph N/A   Mostly Cloudy
8:56 PM 51.1 °F 27.0 °F 39% 30.18 in 10.0 mi Variable 3.5 mph - N/A   Mostly Cloudy
9:56 PM 50.0 °F 26.1 °F 39% 30.18 in 10.0 mi Variable 5.8 mph - N/A   Clear
10:56 PM 48.9 °F 30.0 °F 48% 30.19 in 10.0 mi North 9.2 mph - N/A   Clear
11:56 PM 48.0 °F 33.1 °F 56% 30.21 in 10.0 mi NW 11.5 mph - N/A   Clear